Location: Bu�n Treun
(12.1333°N, 108.3167°E)
Time: 11:01:51
(UTC+00:00)

BEESAT - Pass Details

Date: 04 October 2021
Orbit: 699 x 709 km, 98.6° (Epoch: 27 October)

Event Time Altitude Azimuth Distance (km) Brightness Sun altitude
Rises 12:00:07 0° 14° (NNE) 3,072 ? -21.6°
Enters shadow 12:01:24 - 15° (NNE) 2,547 ? -22.0°
Exits shadow 12:02:44 12° 16° (NNE) 2,010 ? -22.3°
Maximum altitude 12:07:05 80° 102° (ESE) 713 ? -23.3°
Drops below altitude 10° 12:11:49 10° 189° (S) 2,158 ? -24.5°
Sets 12:14:04 0° 190° (S) 3,077 ? -25.1°
